Location: Boiro
(42.6475°N, 8.8834°W)
Time: 22:03:27
(UTC+01:00)

AO-27 - Visible Passes

Search period start: 22 January 2022 00:00
Search period end: 01 February 2022 00:00
Orbit: 784 x 798 km, 98.9° (Epoch: 22 January)

Date Brightness Start Highest point End Pass type
(mag) Time Alt. Az. Time Alt. Az. Time Alt. Az.
22 Jan 7.6 19:55:41 10° SSE 20:00:50 66° ENE 20:06:00 10° N visible
22 Jan 10.4 21:37:40 10° SW 21:40:45 16° W 21:43:51 10° NW visible
23 Jan 10.5 08:08:40 10° NE 08:12:33 21° E 08:16:25 10° SE visible
23 Jan 8.2 19:27:05 10° SE 19:31:48 36° ENE 19:36:31 10° N visible
23 Jan 9.5 21:06:49 10° SSW 21:11:17 29° W 21:15:47 10° NW visible
24 Jan 11.1 07:41:45 10° ENE 07:43:01 11° E 07:44:17 10° ESE visible
24 Jan 8.4 20:36:53 10° S 20:41:57 54° W 20:47:03 10° NNW visible
25 Jan 7.6 20:07:33 10° SSE 20:12:45 83° ENE 20:17:58 10° NNW visible
25 Jan 10.7 21:50:52 10° WSW 21:52:51 12° W 21:54:48 10° WNW visible
26 Jan 10.2 08:20:15 10° NE 08:24:36 27° E 08:28:56 10° SSE visible
26 Jan 7.9 19:38:45 10° SE 19:43:40 45° ENE 19:48:36 10° N visible
26 Jan 9.9 21:19:16 10° SW 21:23:19 23° W 21:27:24 10° NW visible
27 Jan 10.8 07:52:22 10° ENE 07:55:07 14° E 07:57:51 10° ESE visible
27 Jan 8.6 19:10:30 10° ESE 19:14:43 26° ENE 19:18:56 10° N visible
27 Jan 8.9 20:49:03 10° S 20:53:56 42° W 20:58:52 10° NNW visible
28 Jan 7.8 20:19:30 10° S 20:24:42 78° WSW 20:29:54 10° NNW visible
29 Jan 7.7 19:50:29 10° SSE 19:55:34 58° ENE 20:00:39 10° N visible
29 Jan 10.3 21:31:54 10° SW 21:35:23 18° W 21:38:53 10° NW visible
30 Jan 10.6 08:03:38 10° NE 08:07:12 18° E 08:10:44 10° SE visible
30 Jan 8.3 19:22:00 10° SE 19:26:33 32° ENE 19:31:06 10° N visible
30 Jan 9.3 21:01:19 10° SSW 21:05:57 33° W 21:10:37 10° NNW visible
31 Jan 8.1 20:31:31 10° S 20:36:39 61° WSW 20:41:48 10° NNW visible
